User: anonymous   Login
Location: Blue Mountain Vista Observatory
(40.6992°N, 75.9422°W)
Time: 10:12:12
(UTC-04:00)
Language:

IDEFIX/ARIANE 42P - Orbit

View from above orbital plane
View from above orbital plane
View from above satellite
View from above satellite

Ground track
Ground track

The orbit data is extracted from the following two-line orbital elements,

1 27422U 02021B   15088.11602839  .00000231  00000-0  10700-3 0  9991
2 27422 098.2656 121.5221 0013566 118.6368 241.6181 14.29154098670822
Epoch (UTC): 29 March 2015 02:47:04
Eccentricity: 0.0013566
inclination: 98.2656°
perigee height: 785 km
apogee height: 804 km
right ascension of ascending node: 121.5221°
argument of perigee: 118.6368°
revolutions per day: 14.29154098
mean anomaly at epoch: 241.6181°
orbit number at epoch: 67082

The dashed part of the orbit path shows where the satellite is in the earth's shadow,  

DLR